Погода в Поташке

Россия / Свердловская область     56°13′46″N   58°47′55″E
темп.,
°C
ветер,
м/с
пор.,
м/с
влажн.,
%
обл.,
%
осадки,
мм/ч
давл.,
гПа
погр.,
м
11 мая, вт
вт1123:00+12юв310545 0.0 1025192
02:00+10вюв22565 0.0 102535
05:00+8вюв22567 0.0 102612
08:00+13вюв2247100 0.0 1027163
11:00+18вюв2233100 0.0 1027738
14:00+21в1226100 0.0 10271383
17:00+21ссв1226100 0.0 10271567
20:00+18юз11412 0.0 102711
12 мая, ср
ср1223:00+14всв01480 0.0 102810
02:00+12ююв00527 0.0 102810
05:00+11св11575 0.0 102910
08:00+16с114819 0.0 1030195
11:00+21сз124393 0.0 1029873
14:00+23зсз34400 0.0 10281931
17:00+23сз443858 0.0 10281932
20:00+19ссз23530 0.0 102861
13 мая, чт
чт1323:00+14ссз11555 0.0 102810
02:00+13ссв115694 0.0 102910
05:00+11с11598 0.0 102910
08:00+17сз11499 0.0 1029165
11:00+22сз23353 0.0 10291124
14:00+24зсз33305 0.0 10271535
17:00+24зсз33315 0.0 10271606
20:00+20зсз2247100 0.0 102733
14 мая, пт
пт1423:00+16с01545 0.0 102711
02:00+15ююз00595 0.0 102711
05:00+14ю11620 0.0 102810
08:00+19ююз12504 0.0 1028184
11:00+24зюз34415 0.0 10271007
14:00+26з353415 0.0 10252227
17:00+26з4531100 0.0 10252359
20:00+21з3650100 0.0 1024122
15 мая, сб
сб1523:00+17зюз22575 0.0 102512
02:00+15ююз22615 0.0 102421
05:00+14ююз22645 0.0 102526
08:00+18юз35545 0.0 1025244
11:00+24зюз45407 0.0 1023922
14:00+27з56295 0.0 10222002
17:00+27з56295 0.0 10212081
20:00+22з37475 0.0 1021180